When you browse on this site, cookies collect data to enhance your experience and personalize the content and advertising you see.
Visit our Privacy Policy to learn more. By continuing to use the site, you agree to this use of cookies and data.
  • In Portugal
  • List of Countries
  • For 7 days
  • Water Temperature
  • Weather Map
  • Weather Widgets
  • user-avatar
    Login

    Hourly Weather Khulna

    Today, 26 February, Wednesday

    Time Temperature Precipitation Wind Pressure Humidity
    00:00 +20°C° 0 mm 1 mps 759 mmHg 67%
    01:00 +19°C° 0.1 mm 1 mps 759 mmHg 69%
    02:00 +19°C° 0.1 mm 1 mps 759 mmHg 71%
    03:00 +19°C° 0.1 mm 1 mps 759 mmHg 73%
    04:00 +19°C° 0.2 mm 1 mps 759 mmHg 72%
    05:00 +19°C° 0.2 mm 1 mps 759 mmHg 72%
    06:00 +20°C° 0 mm 1 mps 759 mmHg 79%
    07:00 +21°C° 0 mm 1 mps 759 mmHg 73%
    08:00 +23°C° 0 mm 1 mps 760 mmHg 67%
    09:00 +24°C° 0 mm 1 mps 761 mmHg 60%
    10:00 +26°C° 0 mm 2 mps 760 mmHg 55%
    11:00 +28°C° 0 mm 2 mps 760 mmHg 49%
    12:00 +29°C° 0 mm 2 mps 760 mmHg 44%
    13:00 +30°C° 0 mm 2 mps 759 mmHg 42%
    14:00 +30°C° 0 mm 2 mps 758 mmHg 40%
    15:00 +30°C° 0 mm 2 mps 758 mmHg 38%
    16:00 +29°C° 0.1 mm 2 mps 757 mmHg 44%
    17:00 +27°C° 0.1 mm 2 mps 757 mmHg 49%
    18:00 +25°C° 0 mm 3 mps 758 mmHg 59%
    19:00 +24°C° 0.6 mm 2 mps 759 mmHg 66%
    20:00 +23°C° 0.6 mm 1 mps 759 mmHg 74%
    21:00 +22°C° 0.6 mm 1 mps 760 mmHg 81%
    22:00 +21°C° 0 mm 1 mps 760 mmHg 81%
    23:00 +21°C° 0 mm 1 mps 760 mmHg 81%

    Tomorrow, 27 February, Thursday

    Time Temperature Precipitation Wind Pressure Humidity
    00:00 +21°C° 0 mm 1 mps 760 mmHg 81%
    01:00 +21°C° 0 mm 1 mps 759 mmHg 81%
    02:00 +20°C° 0 mm 1 mps 759 mmHg 82%
    03:00 +20°C° 0 mm 1 mps 759 mmHg 82%
    04:00 +20°C° 0 mm 1 mps 759 mmHg 83%
    05:00 +19°C° 0 mm 1 mps 759 mmHg 85%
    06:00 +19°C° 0 mm 1 mps 759 mmHg 86%
    07:00 +21°C° 0 mm 1 mps 760 mmHg 77%
    08:00 +23°C° 0 mm 1 mps 760 mmHg 67%
    09:00 +25°C° 0 mm 1 mps 761 mmHg 57%
    10:00 +27°C° 0 mm 1 mps 760 mmHg 47%
    11:00 +29°C° 0 mm 1 mps 760 mmHg 38%
    12:00 +31°C° 0 mm 1 mps 760 mmHg 28%
    13:00 +31°C° 0 mm 2 mps 759 mmHg 26%
    14:00 +31°C° 0 mm 2 mps 758 mmHg 25%
    15:00 +31°C° 0 mm 2 mps 757 mmHg 24%
    16:00 +30°C° 0 mm 2 mps 757 mmHg 27%
    17:00 +29°C° 0 mm 2 mps 757 mmHg 30%
    18:00 +27°C° 0 mm 2 mps 757 mmHg 33%
    19:00 +26°C° 0 mm 2 mps 758 mmHg 38%
    20:00 +25°C° 0 mm 2 mps 758 mmHg 43%
    21:00 +23°C° 0 mm 2 mps 759 mmHg 47%
    22:00 +23°C° 0 mm 1 mps 759 mmHg 49%
    23:00 +22°C° 0 mm 1 mps 759 mmHg 51%

    Day after tomorrow, 28 February, Friday

    Time Temperature Precipitation Wind Pressure Humidity
    00:00 +22°C° 0 mm 1 mps 759 mmHg 53%
    01:00 +22°C° 0 mm 1 mps 758 mmHg 53%
    02:00 +21°C° 0 mm 1 mps 758 mmHg 53%
    03:00 +21°C° 0 mm 1 mps 757 mmHg 53%
    04:00 +21°C° 0 mm 1 mps 757 mmHg 54%
    05:00 +20°C° 0 mm 1 mps 758 mmHg 54%
    06:00 +20°C° 0 mm 1 mps 758 mmHg 55%
    07:00 +22°C° 0 mm 1 mps 758 mmHg 50%
    08:00 +24°C° 0 mm 1 mps 759 mmHg 44%
    09:00 +26°C° 0 mm 1 mps 760 mmHg 39%
    10:00 +28°C° 0 mm 2 mps 759 mmHg 36%
    11:00 +30°C° 0 mm 2 mps 759 mmHg 32%
    12:00 +31°C° 0 mm 2 mps 759 mmHg 28%
    13:00 +32°C° 0 mm 2 mps 758 mmHg 26%
    14:00 +32°C° 0 mm 2 mps 757 mmHg 25%
    15:00 +34°C° 0 mm 3 mps 756 mmHg 24%
    16:00 +31°C° 0 mm 2 mps 756 mmHg 26%
    17:00 +30°C° 0 mm 2 mps 756 mmHg 29%
    18:00 +28°C° 0 mm 2 mps 756 mmHg 32%
    19:00 +27°C° 0 mm 1 mps 756 mmHg 35%
    20:00 +25°C° 0 mm 1 mps 757 mmHg 38%
    21:00 +24°C° 0 mm 1 mps 757 mmHg 40%
    22:00 +23°C° 0 mm 1 mps 757 mmHg 42%
    23:00 +23°C° 0 mm 1 mps 757 mmHg 43%

    29 February, Saturday

    Time Temperature Precipitation Wind Pressure Humidity
    00:00 +21°C° 0 mm 0 mps 757 mmHg 44%
    01:00 +22°C° 0 mm 1 mps 757 mmHg 45%
    02:00 +22°C° 0 mm 1 mps 757 mmHg 45%
    03:00 +21°C° 0 mm 2 mps 756 mmHg 45%
    04:00 +21°C° 0 mm 1 mps 756 mmHg 47%
    05:00 +21°C° 0 mm 1 mps 756 mmHg 48%
    06:00 +20°C° 0 mm 1 mps 756 mmHg 50%
    07:00 +22°C° 0 mm 1 mps 757 mmHg 46%
    08:00 +25°C° 0 mm 1 mps 758 mmHg 41%
    09:00 +27°C° 0 mm 1 mps 759 mmHg 36%
    10:00 +29°C° 0 mm 1 mps 758 mmHg 32%
    11:00 +31°C° 0 mm 1 mps 758 mmHg 28%
    12:00 +33°C° 0 mm 1 mps 758 mmHg 24%
    13:00 +35°C° 0 mm 2 mps 757 mmHg 23%
    14:00 +35°C° 0 mm 2 mps 756 mmHg 22%
    15:00 +35°C° 0 mm 2 mps 755 mmHg 20%
    16:00 +34°C° 0 mm 2 mps 755 mmHg 23%
    17:00 +31°C° 0 mm 2 mps 755 mmHg 25%
    18:00 +30°C° 0 mm 1 mps 755 mmHg 28%
    19:00 +28°C° 0 mm 1 mps 756 mmHg 32%
    20:00 +27°C° 0 mm 1 mps 756 mmHg 36%
    21:00 +25°C° 0 mm 1 mps 757 mmHg 40%
    22:00 +25°C° 0 mm 2 mps 757 mmHg 42%
    23:00 +24°C° 0 mm 2 mps 757 mmHg 44%

    1 March, Sunday

    Time Temperature Precipitation Wind Pressure Humidity
    00:00 +23°C° 0 mm 2 mps 757 mmHg 45%
    01:00 +23°C° 0 mm 2 mps 757 mmHg 46%
    02:00 +23°C° 0 mm 2 mps 756 mmHg 48%
    03:00 +21°C° 0 mm 2 mps 756 mmHg 49%
    04:00 +21°C° 0 mm 2 mps 756 mmHg 50%
    05:00 +21°C° 0 mm 2 mps 756 mmHg 51%
    06:00 +20°C° 0 mm 2 mps 757 mmHg 53%
    07:00 +24°C° 0 mm 1 mps 757 mmHg 48%
    08:00 +26°C° 0 mm 1 mps 758 mmHg 43%
    09:00 +28°C° 0 mm 1 mps 758 mmHg 38%
    10:00 +31°C° 0 mm 1 mps 758 mmHg 33%
    11:00 +33°C° 0 mm 1 mps 758 mmHg 28%
    12:00 +35°C° 0 mm 1 mps 757 mmHg 23%
    13:00 +35°C° 0 mm 1 mps 757 mmHg 22%
    14:00 +37°C° 0 mm 2 mps 756 mmHg 21%
    15:00 +37°C° 0 mm 2 mps 755 mmHg 20%
    16:00 +35°C° 0 mm 2 mps 755 mmHg 23%
    17:00 +34°C° 0 mm 2 mps 755 mmHg 26%
    18:00 +31°C° 0 mm 2 mps 755 mmHg 29%
    19:00 +29°C° 0 mm 2 mps 755 mmHg 36%
    20:00 +28°C° 0 mm 3 mps 756 mmHg 44%
    21:00 +26°C° 0 mm 4 mps 756 mmHg 51%
    22:00 +25°C° 0 mm 3 mps 756 mmHg 56%
    23:00 +24°C° 0 mm 3 mps 756 mmHg 62%

    2 March, Monday

    Time Temperature Precipitation Wind Pressure Humidity
    00:00 +23°C° 0 mm 2 mps 756 mmHg 67%
    01:00 +23°C° 0 mm 2 mps 756 mmHg 70%
    02:00 +21°C° 0 mm 2 mps 755 mmHg 73%
    03:00 +22°C° 0 mm 1 mps 755 mmHg 76%
    04:00 +22°C° 0 mm 1 mps 755 mmHg 79%
    05:00 +21°C° 0 mm 1 mps 755 mmHg 82%
    06:00 +21°C° 0 mm 1 mps 756 mmHg 85%
    07:00 +24°C° 0 mm 2 mps 756 mmHg 74%
    08:00 +26°C° 0 mm 2 mps 757 mmHg 62%
    09:00 +29°C° 0 mm 3 mps 758 mmHg 51%
    10:00 +31°C° 0 mm 3 mps 757 mmHg 43%
    11:00 +35°C° 0 mm 3 mps 757 mmHg 34%
    12:00 +37°C° 0 mm 3 mps 757 mmHg 26%
    13:00 +37°C° 0 mm 4 mps 756 mmHg 24%
    14:00 +38°C° 0 mm 4 mps 755 mmHg 23%
    15:00 +40°C° 0 mm 5 mps 754 mmHg 21%
    16:00 +37°C° 0 mm 5 mps 754 mmHg 26%
    17:00 +35°C° 0 mm 5 mps 754 mmHg 30%
    18:00 +33°C° 0 mm 6 mps 754 mmHg 35%
    19:00 +30°C° 0 mm 6 mps 754 mmHg 43%
    20:00 +28°C° 0 mm 5 mps 755 mmHg 51%
    21:00 +27°C° 0 mm 5 mps 755 mmHg 59%
    22:00 +26°C° 0 mm 4 mps 755 mmHg 63%
    23:00 +25°C° 0 mm 4 mps 755 mmHg 68%
    Show more